Flag for U.S.A. Weather past 2 weeks in Jacksonville, North Carolina, U.S.A.

Now
55 °F

Clear.


Feels Like: 55 °F
Forecast: 46 / 73 °F
Wind: No wind

Location: Jacksonville - New River

Current Time: Oct 24, 2014 at 8:12:44 PM

Latest Report: Oct 24, 2014 at 7:56 PM


Visibility: 10 mi

Pressure: 29.98 "Hg

Humidity: 90%

Dew point: 52 °F

Location of JacksonvilleLocation

Historic Weather in Jacksonville — Graph

°F

Jacksonville temperature yesterday

Maximum temperature yesterday: 69 °F (at 3:56 PM)
Minimum temperature yesterday: 46 °F (at 6:56 AM)
Average temperature yesterday: 56 °F

Past Weeks' High & Low Weather Summary

 TemperatureHumidityPressure
High87 °F (Oct 11, 2:56 PM)100% (Oct 11, 9:56 PM)30.25 "Hg (Oct 11, 9:56 PM)
Low42 °F (Oct 20, 4:56 AM)40% (Oct 19, 3:56 PM)29.73 "Hg (Oct 18, 3:56 PM)
Average65 °F77%29.99 "Hg
* Reported Oct 9 6:56 PM — Oct 24 6:56 PM, Jacksonville, Weather by CustomWeather, © 2014

Note: Actual official high and low records may vary slightly from our data, if they occured in-between our weather recording intervals... More about our weather records

Advertising

Jacksonville weather history for previous 24 hours

 ConditionsComfort  
Time TempWeatherWind HumidityBarometerVisibility
6:56 PM
Oct 24
58 °FSunny.5 mph84%29.97 "Hg10 mi
5:56 PM66 °FSunny.No wind56%29.96 "Hg10 mi
4:56 PM69 °FSunny.7 mph45%29.95 "Hg10 mi
3:56 PM70 °FSunny.6 mph44%29.96 "Hg10 mi
2:56 PM69 °FSunny.8 mph44%29.97 "Hg10 mi
1:56 PM68 °FSunny.No wind44%29.99 "Hg10 mi
12:56 PM66 °FSunny.3 mph49%30.03 "Hg10 mi
11:56 AM62 °FSunny.3 mph56%30.05 "Hg10 mi
10:56 AM61 °FSunny.6 mph56%30.05 "Hg10 mi
9:56 AM57 °FSunny.7 mph64%30.06 "Hg10 mi
8:56 AM52 °FSunny.5 mph80%30.04 "Hg10 mi
7:56 AM47 °FClear.3 mph90%30.03 "Hg10 mi
6:56 AM46 °FClear.5 mph93%30.02 "Hg10 mi
5:56 AM45 °FClear.5 mph97%30.00 "Hg9 mi
4:56 AM47 °FClear.3 mph93%29.99 "Hg10 mi
3:56 AM47 °FClear.3 mph93%29.98 "Hg10 mi
2:56 AM50 °FClear.3 mph86%29.98 "Hg10 mi
1:56 AM51 °FClear.5 mph83%29.98 "Hg10 mi
12:56 AM51 °FClear.3 mph86%29.99 "Hg10 mi
11:56 PM
Oct 23
52 °FClear.7 mph86%29.99 "Hg10 mi
10:56 PM52 °FClear.7 mph86%30.00 "Hg10 mi
9:56 PM53 °FClear.3 mph86%29.98 "Hg10 mi
8:56 PM56 °FClear.5 mph77%29.96 "Hg10 mi
Weather by CustomWeather, © 2014

See weather overviewHow to use our weather pages